TimeMDT,TemperatureF,Dew PointF,Humidity,Sea Level PressureIn,VisibilityMPH,Wind Direction,Wind SpeedMPH,Gust SpeedMPH,PrecipitationIn,Events,Conditions,WindDirDegrees,DateUTC
12:53 AM,34.0,3.0,27,30.12,10.0,Calm,Calm,-,N/A,,Clear,0,2012-10-08 06:53:00
1:53 AM,30.9,1.9,29,30.13,10.0,ESE,3.5,-,N/A,,Clear,110,2012-10-08 07:53:00
2:53 AM,30.9,5.0,33,30.12,10.0,Calm,Calm,-,N/A,,Clear,0,2012-10-08 08:53:00
3:53 AM,30.0,3.9,33,30.11,10.0,SW,3.5,-,N/A,,Clear,230,2012-10-08 09:53:00
4:53 AM,27.0,1.9,34,30.13,10.0,Calm,Calm,-,N/A,,Clear,0,2012-10-08 10:53:00
5:53 AM,27.0,3.0,36,30.13,10.0,Calm,Calm,-,N/A,,Clear,0,2012-10-08 11:53:00
6:53 AM,27.0,3.0,36,30.16,10.0,Calm,Calm,-,N/A,,Clear,0,2012-10-08 12:53:00
7:53 AM,27.0,3.0,36,30.18,10.0,Calm,Calm,-,N/A,,Clear,0,2012-10-08 13:53:00
8:53 AM,34.0,7.0,32,30.19,10.0,Calm,Calm,-,N/A,,Clear,0,2012-10-08 14:53:00
9:53 AM,39.9,9.0,28,30.16,10.0,Calm,Calm,-,N/A,,Clear,0,2012-10-08 15:53:00
10:53 AM,46.9,9.0,21,30.12,10.0,Variable,3.5,-,N/A,,Clear,0,2012-10-08 16:53:00
11:53 AM,53.1,9.0,17,30.08,10.0,Calm,Calm,-,N/A,,Clear,0,2012-10-08 17:53:00
12:53 PM,57.9,7.0,13,30.03,10.0,Variable,4.6,-,N/A,,Clear,0,2012-10-08 18:53:00
1:53 PM,64.9,5.0,9,29.96,10.0,West,23.0,29.9,N/A,,Clear,280,2012-10-08 19:53:00
2:53 PM,66.9,3.9,8,29.92,10.0,West,19.6,29.9,N/A,,Clear,270,2012-10-08 20:53:00
3:53 PM,68.0,3.9,8,29.92,10.0,West,17.3,25.3,N/A,,Clear,260,2012-10-08 21:53:00
4:53 PM,68.0,6.1,9,29.92,10.0,West,19.6,27.6,N/A,,Clear,270,2012-10-08 22:53:00
5:53 PM,66.0,9.0,11,29.93,10.0,West,21.9,25.3,N/A,,Clear,260,2012-10-08 23:53:00
6:53 PM,61.0,10.9,14,29.95,10.0,WSW,13.8,-,N/A,,Clear,250,2012-10-09 00:53:00
8:53 PM,53.1,10.0,18,29.98,10.0,South,5.8,-,N/A,,Clear,180,2012-10-09 02:53:00
9:53 PM,48.0,9.0,21,29.99,10.0,South,3.5,-,N/A,,Clear,180,2012-10-09 03:53:00
10:53 PM,44.1,9.0,24,29.99,10.0,East,3.5,-,N/A,,Clear,90,2012-10-09 04:53:00
11:53 PM,43.0,12.0,28,29.99,10.0,Calm,Calm,-,N/A,,Clear,0,2012-10-09 05:53:00